Location: Huesca
(42.1318°N, 0.4078°W)
Time: 10:46:12
(UTC+02:00)

S-56A Canister/Altair - All Passes

Search period start: 15 July 2024 00:00
Search period end: 25 July 2024 00:00
Orbit: 638 x 2488 km, 38.9° (Epoch: 14 July)

Date Brightness Start Highest point End Pass type
(mag) Time Alt. Az. Time Alt. Az. Time Alt. Az.
15 Jul - 14:40:54 10° SSW 14:44:13 18° SSE 14:47:16 10° ESE daylight
15 Jul - 16:42:50 10° WSW 16:47:12 48° SSE 16:51:44 10° E daylight
15 Jul - 18:45:59 10° W 18:50:26 57° S 18:56:01 10° ESE daylight
15 Jul - 20:49:18 10° W 20:53:52 30° SSW 20:59:56 10° SE daylight
16 Jul - 14:07:39 10° S 14:10:45 16° SSE 14:13:33 10° ESE daylight
16 Jul - 16:09:21 10° WSW 16:13:47 44° SSE 16:18:07 10° E daylight
16 Jul - 18:12:35 10° W 18:16:58 58° S 18:22:10 10° ESE daylight
16 Jul - 20:15:55 10° W 20:20:19 32° SSW 20:26:03 10° SE daylight
16 Jul - 22:22:12 10° SW 22:23:54 11° SSW 22:25:43 10° SSW visible
17 Jul - 13:34:24 10° S 13:37:15 14° SSE 13:39:48 10° ESE daylight
17 Jul - 15:35:48 10° SW 15:40:21 40° SSE 15:44:33 10° E daylight
17 Jul - 17:39:09 10° W 17:43:31 59° S 17:48:24 10° ESE daylight
17 Jul - 19:42:31 10° W 19:46:48 34° SSW 19:52:12 10° SE daylight
17 Jul - 21:48:02 10° SW 21:50:15 12° SSW 21:52:42 10° S daylight
18 Jul - 13:01:12 10° S 13:03:43 13° SSE 13:05:59 10° ESE daylight
18 Jul - 15:02:11 10° SW 15:06:55 37° SSE 15:11:02 10° E daylight
18 Jul - 17:05:38 10° W 17:10:05 59° S 17:14:43 10° ESE daylight
18 Jul - 19:09:06 10° W 19:13:19 36° SSW 19:18:26 10° SE daylight
18 Jul - 21:14:08 10° WSW 21:16:39 13° SSW 21:19:29 10° S daylight
19 Jul - 12:28:06 10° S 12:30:09 12° SSE 12:32:03 10° SE daylight
19 Jul - 14:28:30 10° SW 14:33:27 34° SSE 14:37:35 10° E daylight
19 Jul - 16:32:03 10° WSW 16:36:39 59° S 16:41:07 10° E daylight
19 Jul - 18:35:40 10° W 18:39:50 39° SSW 18:44:42 10° SE daylight
19 Jul - 20:40:21 10° WSW 20:43:04 14° SSW 20:46:10 10° S daylight
20 Jul - 11:55:16 10° SSE 11:56:33 11° SSE 11:57:46 10° SE daylight
20 Jul - 13:54:45 10° SW 13:59:58 32° SSE 14:04:09 10° E daylight
20 Jul - 15:58:24 10° WSW 16:03:12 58° S 16:07:35 10° E daylight
20 Jul - 18:02:10 10° W 18:06:24 42° SSW 18:11:03 10° SE daylight
20 Jul - 20:06:38 10° WSW 20:09:32 16° SSW 20:12:49 10° S daylight
21 Jul - 13:20:57 10° SW 13:26:26 30° SSE 13:30:43 10° E daylight
21 Jul - 15:24:39 10° WSW 15:29:45 57° S 15:34:07 10° E daylight
21 Jul - 17:28:37 10° W 17:32:57 46° SSW 17:37:26 10° ESE daylight
21 Jul - 19:32:57 10° WSW 19:36:00 17° SSW 19:39:27 10° SSE daylight
22 Jul - 12:47:05 10° SSW 12:52:53 28° SSE 12:57:18 10° E daylight
22 Jul - 14:50:49 10° WSW 14:56:16 55° S 15:00:42 10° E daylight
22 Jul - 16:55:01 10° W 16:59:31 50° SSW 17:03:54 10° ESE daylight
22 Jul - 18:59:17 10° WSW 19:02:31 19° SSW 19:06:06 10° SSE daylight
23 Jul - 12:13:11 10° SSW 12:19:16 27° SSE 12:23:52 10° E daylight
23 Jul - 14:16:54 10° WSW 14:22:47 53° S 14:27:19 10° E daylight
23 Jul - 16:21:19 10° W 16:26:04 53° S 16:30:25 10° ESE daylight
23 Jul - 18:25:37 10° WSW 18:29:04 22° SSW 18:32:44 10° SSE daylight
24 Jul - 11:39:16 10° SSW 11:45:37 25° SSE 11:50:24 10° E daylight
24 Jul - 13:42:53 10° WSW 13:49:15 52° SSE 13:53:57 10° E daylight
24 Jul - 15:47:31 10° W 15:52:37 57° S 15:56:59 10° ESE daylight
24 Jul - 17:51:56 10° W 17:55:37 25° SSW 17:59:24 10° SSE daylight
